| time (UTC) | temp F | wind direction | speed MPH | gust MPH | rain 1hr in | rain 24hr in | rain mn in | humidity % | barometer mb |
| 20260506222306 | 33 | 248 | 0.0 | 0.0 | 0.00 | 0.00 | 0.00 | 77 | 1015.4 |
| 20260506221605 | 33 | 248 | 0.0 | 0.0 | 0.00 | 0.00 | 0.00 | 77 | 1015.3 |
| 20260506220901 | 33 | 248 | 0.0 | 0.0 | 0.00 | 0.00 | 0.00 | 76 | 1015.2 |
| 20260506220211 | 34 | 248 | 0.0 | 0.0 | 0.00 | 0.00 | 0.00 | 74 | 1015.0 |
| 20260506215509 | 34 | 248 | 0.0 | 0.0 | 0.00 | 0.00 | 0.00 | 74 | 1015.0 |
| 20260506214807 | 33 | 248 | 0.0 | 0.0 | 0.00 | 0.00 | 0.00 | 72 | 1014.9 |
| 20260506214105 | 33 | 248 | 0.0 | 0.0 | 0.00 | 0.00 | 0.00 | 71 | 1014.8 |
| 20260506213401 | 33 | 248 | 0.0 | 0.0 | 0.00 | 0.00 | 0.00 | 69 | 1014.8 |
| 20260506212712 | 33 | 248 | 0.0 | 0.0 | 0.00 | 0.00 | 0.00 | 69 | 1014.8 |
| 20260506212009 | 33 | 248 | 0.0 | 0.0 | 0.00 | 0.00 | 0.00 | 69 | 1014.8 |
| 20260506211306 | 33 | 248 | 0.0 | 0.0 | 0.00 | 0.00 | 0.00 | 69 | 1014.7 |
| 20260506210604 | 33 | 248 | 0.0 | 0.0 | 0.00 | 0.00 | 0.00 | 69 | 1014.6 |
| 20260506205903 | 34 | 248 | 0.0 | 0.0 | 0.00 | 0.00 | 0.00 | 68 | 1014.6 |
| 20260506205202 | 34 | 248 | 0.0 | 0.0 | 0.00 | 0.00 | 0.00 | 68 | 1014.5 |
| 20260506204512 | 34 | 248 | 0.0 | 0.0 | 0.00 | 0.00 | 0.00 | 68 | 1014.6 |
| 20260506203811 | 34 | 248 | 0.0 | 0.0 | 0.00 | 0.00 | 0.00 | 66 | 1014.6 |
| 20260506203110 | 34 | 248 | 0.0 | 0.0 | 0.00 | 0.00 | 0.00 | 65 | 1014.5 |
| 20260506202408 | 34 | 248 | 0.0 | 0.0 | 0.00 | 0.00 | 0.00 | 63 | 1014.5 |
| 20260506201705 | 34 | 248 | 0.0 | 0.0 | 0.00 | 0.00 | 0.00 | 63 | 1014.6 |
| 20260506201003 | 34 | 248 | 0.0 | 0.0 | 0.00 | 0.00 | 0.00 | 62 | 1014.4 |
| 20260506200312 | 35 | 248 | 0.0 | 0.0 | 0.00 | 0.00 | 0.00 | 60 | 1014.3 |
| 20260506195611 | 35 | 248 | 0.0 | 0.0 | 0.00 | 0.00 | 0.00 | 60 | 1014.4 |
| 20260506194909 | 35 | 248 | 0.0 | 0.0 | 0.00 | 0.00 | 0.00 | 59 | 1014.2 |
| 20260506194208 | 36 | 248 | 0.0 | 0.0 | 0.00 | 0.00 | 0.00 | 59 | 1014.3 |
| 20260506193507 | 36 | 248 | 0.0 | 0.0 | 0.00 | 0.00 | 0.00 | 58 | 1014.1 |
| 20260506192806 | 36 | 248 | 0.0 | 0.0 | 0.00 | 0.00 | 0.00 | 57 | 1014.2 |
| 20260506192105 | 36 | 248 | 0.0 | 0.0 | 0.00 | 0.00 | 0.00 | 56 | 1014.2 |
| 20260506191404 | 37 | 248 | 0.0 | 0.0 | 0.00 | 0.00 | 0.00 | 54 | 1014.1 |
| 20260506190702 | 37 | 248 | 0.0 | 0.0 | 0.00 | 0.00 | 0.00 | 52 | 1014.1 |
| 20260506190001 | 37 | 248 | 0.0 | 0.0 | 0.00 | 0.00 | 0.00 | 50 | 1014.1 |
| 20260506185312 | 38 | 248 | 0.0 | 0.0 | 0.00 | 0.00 | 0.00 | 48 | 1014.1 |
| 20260506184610 | 38 | 248 | 0.0 | 0.0 | 0.00 | 0.00 | 0.00 | 47 | 1014.1 |
| 20260506183908 | 39 | 248 | 0.0 | 0.0 | 0.00 | 0.00 | 0.00 | 44 | 1014.0 |
| 20260506183205 | 39 | 248 | 0.0 | 0.0 | 0.00 | 0.00 | 0.00 | 42 | 1014.0 |
| 20260506182504 | 39 | 248 | 1.0 | 1.0 | 0.00 | 0.00 | 0.00 | 42 | 1014.0 |
| 20260506181802 | 40 | 248 | 0.0 | 0.0 | 0.00 | 0.00 | 0.00 | 40 | 1013.9 |
| 20260506181112 | 41 | 248 | 0.0 | 0.0 | 0.00 | 0.00 | 0.00 | 39 | 1013.9 |
| 20260506180411 | 42 | 248 | 0.0 | 0.0 | 0.00 | 0.00 | 0.00 | 39 | 1013.9 |
| 20260506175708 | 42 | 248 | 0.0 | 0.0 | 0.00 | 0.00 | 0.00 | 38 | 1013.7 |
| 20260506175006 | 43 | 248 | 0.0 | 0.0 | 0.00 | 0.00 | 0.00 | 38 | 1013.7 |
| 20260506174305 | 44 | 248 | 0.0 | 0.0 | 0.00 | 0.00 | 0.00 | 37 | 1013.7 |
| 20260506173604 | 45 | 248 | 0.0 | 0.0 | 0.00 | 0.00 | 0.00 | 37 | 1013.8 |
| 20260506172902 | 46 | 248 | 0.0 | 0.0 | 0.00 | 0.00 | 0.00 | 37 | 1013.7 |
| 20260506172210 | 46 | 248 | 1.0 | 1.0 | 0.00 | 0.00 | 0.00 | 36 | 1013.7 |
| 20260506171509 | 47 | 248 | 1.0 | 3.0 | 0.00 | 0.00 | 0.00 | 36 | 1013.7 |
| 20260506170807 | 47 | 248 | 1.0 | 2.0 | 0.00 | 0.00 | 0.00 | 36 | 1013.6 |
| 20260506170106 | 48 | 248 | 0.0 | 0.0 | 0.00 | 0.00 | 0.00 | 35 | 1013.5 |
| 20260506165404 | 48 | 248 | 0.0 | 1.0 | 0.00 | 0.00 | 0.00 | 35 | 1013.5 |
| 20260506164701 | 48 | 248 | 1.0 | 2.0 | 0.00 | 0.00 | 0.00 | 35 | 1013.3 |
| 20260506164011 | 48 | 248 | 1.0 | 3.0 | 0.00 | 0.00 | 0.00 | 33 | 1013.4 |
| 20260506163309 | 49 | 248 | 1.0 | 1.0 | 0.00 | 0.00 | 0.00 | 32 | 1013.3 |
| 20260506162606 | 49 | 248 | 1.0 | 2.0 | 0.00 | 0.00 | 0.00 | 32 | 1013.2 |
| 20260506161904 | 49 | 265 | 2.0 | 3.0 | 0.00 | 0.00 | 0.00 | 32 | 1013.2 |
| 20260506161202 | 50 | 258 | 1.0 | 1.0 | 0.00 | 0.00 | 0.00 | 32 | 1013.2 |
| 20260506160512 | 50 | 258 | 2.0 | 2.0 | 0.00 | 0.00 | 0.00 | 32 | 1013.1 |
| 20260506155810 | 50 | 325 | 1.0 | 2.0 | 0.00 | 0.00 | 0.00 | 32 | 1013.0 |
| 20260506155109 | 50 | 221 | 5.0 | 6.0 | 0.00 | 0.00 | 0.00 | 32 | 1013.0 |
| 20260506154407 | 50 | 248 | 1.0 | 3.0 | 0.00 | 0.00 | 0.00 | 32 | 1013.0 |
| 20260506153703 | 50 | 261 | 2.0 | 5.0 | 0.00 | 0.00 | 0.00 | 31 | 1013.1 |
| 20260506153001 | 50 | 282 | 5.0 | 6.0 | 0.00 | 0.00 | 0.00 | 31 | 1013.2 |
| 20260506152312 | 50 | 302 | 5.0 | 5.0 | 0.00 | 0.00 | 0.00 | 32 | 1013.2 |
| 20260506151609 | 50 | 248 | 1.0 | 2.0 | 0.00 | 0.00 | 0.00 | 32 | 1013.1 |
| 20260506150908 | 50 | 266 | 1.0 | 2.0 | 0.00 | 0.00 | 0.00 | 31 | 1013.1 |
| 20260506150206 | 51 | 342 | 3.0 | 5.0 | 0.00 | 0.00 | 0.00 | 30 | 1013.2 |
| 20260506145504 | 53 | 281 | 1.0 | 3.0 | 0.00 | 0.00 | 0.00 | 30 | 1013.1 |
| 20260506144802 | 56 | 304 | 5.0 | 10.0 | 0.00 | 0.00 | 0.00 | 28 | 1013.1 |
| 20260506144111 | 60 | 308 | 1.0 | 3.0 | 0.00 | 0.00 | 0.00 | 28 | 1013.1 |
| 20260506143409 | 57 | 305 | 2.0 | 2.0 | 0.00 | 0.00 | 0.00 | 28 | 1013.0 |
| 20260506142709 | 57 | 252 | 1.0 | 6.0 | 0.00 | 0.00 | 0.00 | 28 | 1013.1 |
| 20260506142005 | 59 | 238 | 1.0 | 2.0 | 0.00 | 0.00 | 0.00 | 27 | 1013.0 |
| 20260506141304 | 68 | 338 | 2.0 | 6.0 | 0.00 | 0.00 | 0.00 | 25 | 1012.9 |
| 20260506140603 | 67 | 254 | 1.0 | 3.0 | 0.00 | 0.00 | 0.00 | 26 | 1012.9 |
| 20260506135901 | 66 | 269 | 3.0 | 5.0 | 0.00 | 0.00 | 0.00 | 25 | 1012.7 |
| 20260506135211 | 67 | 13 | 6.0 | 7.0 | 0.00 | 0.00 | 0.00 | 26 | 1012.8 |
| 20260506134508 | 61 | 334 | 2.0 | 7.0 | 0.00 | 0.00 | 0.00 | 29 | 1012.7 |
| 20260506133806 | 55 | 19 | 3.0 | 6.0 | 0.00 | 0.00 | 0.00 | 31 | 1012.8 |
| 20260506133104 | 55 | 304 | 5.0 | 5.0 | 0.00 | 0.00 | 0.00 | 30 | 1012.8 |
| 20260506132402 | 53 | 251 | 2.0 | 2.0 | 0.00 | 0.00 | 0.00 | 31 | 1012.9 |
| 20260506131712 | 53 | 308 | 3.0 | 6.0 | 0.00 | 0.00 | 0.00 | 33 | 1012.8 |
| 20260506131009 | 53 | 248 | 3.0 | 6.0 | 0.00 | 0.00 | 0.00 | 31 | 1012.7 |
| 20260506130307 | 54 | 334 | 1.0 | 3.0 | 0.00 | 0.00 | 0.00 | 31 | 1012.7 |
| 20260506125603 | 56 | 265 | 5.0 | 9.0 | 0.00 | 0.00 | 0.00 | 29 | 1012.8 |
| 20260506124913 | 61 | 265 | 5.0 | 8.0 | 0.00 | 0.00 | 0.00 | 27 | 1012.7 |
| 20260506124211 | 60 | 14 | 2.0 | 2.0 | 0.00 | 0.00 | 0.00 | 29 | 1012.8 |
| 20260506123508 | 61 | 321 | 2.0 | 9.0 | 0.00 | 0.00 | 0.00 | 27 | 1012.9 |
| 20260506122806 | 66 | 20 | 3.0 | 8.0 | 0.00 | 0.00 | 0.00 | 27 | 1012.9 |
| 20260506122104 | 67 | 250 | 5.0 | 12.0 | 0.00 | 0.00 | 0.00 | 27 | 1012.8 |
| 20260506121413 | 66 | 314 | 3.0 | 3.0 | 0.00 | 0.00 | 0.00 | 27 | 1012.8 |
| 20260506120711 | 64 | 13 | 5.0 | 9.0 | 0.00 | 0.00 | 0.00 | 28 | 1012.8 |
| 20260506120008 | 63 | 279 | 8.0 | 10.0 | 0.00 | 0.00 | 0.00 | 27 | 1012.9 |
| 20260506115307 | 64 | 304 | 3.0 | 12.0 | 0.00 | 0.00 | 0.00 | 27 | 1012.9 |
| 20260506114603 | 64 | 267 | 2.0 | 6.0 | 0.00 | 0.00 | 0.00 | 28 | 1012.8 |
| 20260506113912 | 63 | 276 | 2.0 | 8.0 | 0.00 | 0.00 | 0.00 | 28 | 1012.7 |
| 20260506113210 | 61 | 274 | 6.0 | 10.0 | 0.00 | 0.00 | 0.00 | 28 | 1012.7 |
| 20260506112507 | 60 | 3 | 6.0 | 17.0 | 0.00 | 0.00 | 0.00 | 26 | 1012.8 |
| 20260506111805 | 62 | 255 | 10.0 | 20.0 | 0.00 | 0.00 | 0.00 | 25 | 1012.6 |
| 20260506111103 | 61 | 249 | 6.0 | 9.0 | 0.00 | 0.00 | 0.00 | 28 | 1012.5 |
| 20260506110412 | 59 | 248 | 3.0 | 3.0 | 0.00 | 0.00 | 0.00 | 29 | 1012.4 |
| 20260506105711 | 57 | 298 | 2.0 | 2.0 | 0.00 | 0.00 | 0.00 | 31 | 1012.3 |
| 20260506105008 | 59 | 256 | 8.0 | 17.0 | 0.00 | 0.00 | 0.00 | 33 | 1012.6 |
| 20260506104306 | 58 | 356 | 7.0 | 10.0 | 0.00 | 0.00 | 0.00 | 33 | 1012.6 |
| 20260506103605 | 57 | 306 | 3.0 | 10.0 | 0.00 | 0.00 | 0.00 | 35 | 1012.4 |
| 20260506102902 | 56 | 325 | 3.0 | 8.0 | 0.00 | 0.00 | 0.00 | 33 | 1012.3 |
| 20260506102212 | 55 | 342 | 3.0 | 7.0 | 0.00 | 0.00 | 0.00 | 35 | 1012.3 |
| 20260506101509 | 52 | 255 | 1.0 | 2.0 | 0.00 | 0.00 | 0.00 | 36 | 1012.2 |
| 20260506100807 | 53 | 226 | 6.0 | 10.0 | 0.00 | 0.00 | 0.00 | 35 | 1012.1 |
| 20260506100105 | 54 | 315 | 10.0 | 14.0 | 0.00 | 0.00 | 0.00 | 37 | 1012.4 |
| 20260506095402 | 52 | 296 | 2.0 | 3.0 | 0.00 | 0.00 | 0.00 | 40 | 1012.3 |
| 20260506094712 | 50 | 255 | 3.0 | 7.0 | 0.00 | 0.00 | 0.00 | 38 | 1012.1 |
| 20260506094010 | 52 | 7 | 2.0 | 7.0 | 0.00 | 0.00 | 0.00 | 37 | 1012.1 |
| 20260506093307 | 53 | 270 | 6.0 | 12.0 | 0.00 | 0.00 | 0.00 | 38 | 1012.1 |
| 20260506092605 | 54 | 315 | 6.0 | 7.0 | 0.00 | 0.00 | 0.00 | 38 | 1012.1 |
| 20260506091901 | 54 | 334 | 5.0 | 5.0 | 0.00 | 0.00 | 0.00 | 38 | 1011.8 |
| 20260506091212 | 54 | 250 | 3.0 | 7.0 | 0.00 | 0.00 | 0.00 | 38 | 1011.9 |
| 20260506090511 | 56 | 251 | 3.0 | 6.0 | 0.00 | 0.00 | 0.00 | 38 | 1012.0 |
| 20260506085810 | 56 | 226 | 3.0 | 5.0 | 0.00 | 0.00 | 0.00 | 39 | 1012.0 |
| 20260506085108 | 55 | 300 | 2.0 | 5.0 | 0.00 | 0.00 | 0.00 | 39 | 1011.7 |
| 20260506084405 | 55 | 344 | 2.0 | 7.0 | 0.00 | 0.00 | 0.00 | 41 | 1011.8 |
| 20260506083702 | 53 | 248 | 3.0 | 3.0 | 0.00 | 0.00 | 0.00 | 38 | 1011.7 |
| 20260506083012 | 54 | 248 | 9.0 | 7.0 | 0.00 | 0.00 | 0.00 | 36 | 1011.5 |
| 20260506082309 | 57 | 351 | 6.0 | 14.0 | 0.00 | 0.00 | 0.00 | 35 | 1011.6 |
| 20260506081606 | 58 | 5 | 3.0 | 13.0 | 0.00 | 0.00 | 0.00 | 39 | 1011.6 |
| 20260506080904 | 56 | 253 | 2.0 | 5.0 | 0.00 | 0.00 | 0.00 | 39 | 1011.6 |
| 20260506080202 | 56 | 333 | 5.0 | 7.0 | 0.00 | 0.00 | 0.00 | 38 | 1011.5 |
| 20260506073404 | 54 | 259 | 7.0 | 16.0 | 0.00 | 0.00 | 0.00 | 40 | 1011.3 |
| 20260506072702 | 55 | 257 | 7.0 | 9.0 | 0.00 | 0.00 | 0.00 | 42 | 1011.3 |
| 20260506072012 | 54 | 275 | 2.0 | 6.0 | 0.00 | 0.00 | 0.00 | 45 | 1011.2 |
| 20260506071309 | 55 | 257 | 9.0 | 9.0 | 0.00 | 0.00 | 0.00 | 43 | 1011.2 |
| 20260506070607 | 56 | 311 | 5.0 | 8.0 | 0.00 | 0.00 | 0.00 | 46 | 1011.2 |
| 20260506062405 | 51 | 209 | 2.0 | 2.0 | 0.00 | 0.00 | 0.00 | 53 | 1010.9 |
| 20260506061702 | 53 | 337 | 5.0 | 12.0 | 0.00 | 0.00 | 0.00 | 52 | 1010.8 |
| 20260506061012 | 52 | 253 | 2.0 | 3.0 | 0.00 | 0.00 | 0.00 | 58 | 1010.7 |
| 20260506060309 | 53 | 25 | 2.0 | 2.0 | 0.00 | 0.00 | 0.00 | 59 | 1010.6 |
| 20260506051405 | 41 | 300 | 2.0 | 6.0 | 0.00 | 0.00 | 0.00 | 71 | 1010.1 |
| 20260506050702 | 40 | 245 | 1.0 | 3.0 | 0.00 | 0.00 | 0.00 | 73 | 1010.2 |
| 20260506044609 | 38 | 118 | 3.0 | 3.0 | 0.00 | 0.00 | 0.00 | 77 | 1009.9 |
| 20260506043907 | 37 | 49 | 2.0 | 3.0 | 0.00 | 0.00 | 0.00 | 77 | 1009.8 |
| 20260506043203 | 37 | 297 | 2.0 | 6.0 | 0.00 | 0.00 | 0.00 | 77 | 1009.8 |
| 20260506042501 | 37 | 182 | 5.0 | 5.0 | 0.00 | 0.00 | 0.00 | 77 | 1009.7 |
| 20260506041811 | 37 | 116 | 2.0 | 6.0 | 0.00 | 0.00 | 0.00 | 79 | 1009.6 |
| 20260506041107 | 36 | 262 | 2.0 | 5.0 | 0.00 | 0.00 | 0.00 | 81 | 1009.6 |
| 20260506040405 | 36 | 22 | 1.0 | 0.0 | 0.00 | 0.00 | 0.00 | 82 | 1009.7 |
| 20260506035704 | 35 | 22 | 0.0 | 0.0 | 0.00 | 0.00 | 0.00 | 84 | 1009.5 |
| 20260506035003 | 34 | 82 | 0.0 | 1.0 | 0.00 | 0.00 | 0.00 | 84 | 1009.4 |
| 20260506034313 | 34 | 61 | 0.0 | 2.0 | 0.00 | 0.00 | 0.00 | 85 | 1009.3 |
| 20260506033610 | 33 | 66 | 1.0 | 2.0 | 0.00 | 0.00 | 0.00 | 86 | 1009.1 |
| 20260506032910 | 32 | 129 | 0.0 | 0.0 | 0.00 | 0.00 | 0.00 | 87 | 1009.1 |
| 20260506032207 | 32 | 142 | 0.0 | 0.0 | 0.00 | 0.00 | 0.00 | 87 | 1009.0 |
| 20260506031506 | 31 | 249 | 1.0 | 2.0 | 0.00 | 0.00 | 0.00 | 88 | 1008.9 |
| 20260506030805 | 30 | 248 | 0.0 | 0.0 | 0.00 | 0.00 | 0.00 | 88 | 1008.9 |
| 20260506025411 | 29 | 248 | 0.0 | 1.0 | 0.00 | 0.00 | 0.00 | 88 | 1008.8 |
| 20260506024709 | 28 | 248 | 0.0 | 1.0 | 0.00 | 0.00 | 0.00 | 88 | 1008.6 |
| 20260506024007 | 28 | 248 | 0.0 | 0.0 | 0.00 | 0.00 | 0.00 | 87 | 1008.8 |
| 20260506023305 | 29 | 248 | 0.0 | 0.0 | 0.00 | 0.00 | 0.00 | 87 | 1008.7 |
| 20260506022602 | 29 | 248 | 0.0 | 0.0 | 0.00 | 0.00 | 0.00 | 87 | 1008.6 |
| 20260506021912 | 29 | 248 | 0.0 | 1.0 | 0.00 | 0.00 | 0.00 | 86 | 1008.4 |
| 20260506021209 | 30 | 248 | 0.0 | 1.0 | 0.00 | 0.00 | 0.00 | 86 | 1008.3 |
| 20260506020507 | 30 | 248 | 0.0 | 0.0 | 0.00 | 0.00 | 0.00 | 86 | 1008.3 |
| 20260506015805 | 30 | 248 | 0.0 | 0.0 | 0.00 | 0.00 | 0.00 | 86 | 1008.2 |
| 20260506015104 | 30 | 248 | 0.0 | 2.0 | 0.00 | 0.00 | 0.00 | 86 | 1008.3 |
| 20260506014403 | 30 | 248 | 0.0 | 1.0 | 0.00 | 0.00 | 0.00 | 86 | 1008.2 |
| 20260506013712 | 30 | 248 | 0.0 | 0.0 | 0.00 | 0.00 | 0.00 | 85 | 1008.0 |
| 20260506013010 | 31 | 248 | 0.0 | 0.0 | 0.00 | 0.00 | 0.00 | 85 | 1007.9 |
| 20260506012309 | 31 | 248 | 1.0 | 1.0 | 0.00 | 0.00 | 0.00 | 85 | 1008.0 |
| 20260506011607 | 31 | 248 | 0.0 | 1.0 | 0.00 | 0.00 | 0.00 | 84 | 1008.1 |
| 20260506010906 | 31 | 248 | 0.0 | 1.0 | 0.00 | 0.00 | 0.00 | 84 | 1007.9 |
| 20260506010205 | 31 | 248 | 0.0 | 2.0 | 0.00 | 0.00 | 0.00 | 84 | 1007.9 |
| 20260506005503 | 31 | 248 | 0.0 | 2.0 | 0.00 | 0.00 | 0.00 | 84 | 1007.8 |
| 20260506004812 | 31 | 248 | 1.0 | 3.0 | 0.00 | 0.00 | 0.00 | 85 | 1007.7 |
| 20260506004109 | 31 | 248 | 0.0 | 2.0 | 0.00 | 0.00 | 0.00 | 85 | 1007.6 |
| 20260506003408 | 31 | 248 | 0.0 | 1.0 | 0.00 | 0.00 | 0.00 | 84 | 1007.5 |
| 20260506002707 | 31 | 248 | 1.0 | 1.0 | 0.00 | 0.00 | 0.00 | 84 | 1007.4 |
| 20260506002006 | 31 | 248 | 1.0 | 1.0 | 0.00 | 0.00 | 0.00 | 84 | 1007.4 |
| 20260506001304 | 31 | 248 | 0.0 | 1.0 | 0.00 | 0.02 | 0.00 | 84 | 1007.3 |
| 20260506000613 | 30 | 248 | 1.0 | 2.0 | 0.00 | 0.02 | 0.00 | 84 | 1007.2 |
| 20260505235911 | 31 | 248 | 0.0 | 2.0 | 0.00 | 0.02 | 0.00 | 83 | 1007.1 |
| 20260505235209 | 31 | 248 | 0.0 | 2.0 | 0.00 | 0.02 | 0.00 | 83 | 1007.0 |
| 20260505234506 | 31 | 248 | 1.0 | 2.0 | 0.00 | 0.02 | 0.00 | 83 | 1007.2 |
| 20260505233804 | 31 | 248 | 0.0 | 1.0 | 0.00 | 0.02 | 0.00 | 83 | 1007.2 |
| 20260505233101 | 31 | 276 | 1.0 | 2.0 | 0.00 | 0.02 | 0.00 | 83 | 1007.1 |
| 20260505232411 | 31 | 248 | 1.0 | 3.0 | 0.00 | 0.02 | 0.00 | 83 | 1007.1 |
| 20260505231709 | 31 | 248 | 1.0 | 2.0 | 0.00 | 0.02 | 0.00 | 83 | 1007.0 |
| 20260505231007 | 31 | 248 | 1.0 | 2.0 | 0.00 | 0.02 | 0.00 | 83 | 1006.9 |
| 20260505230304 | 31 | 248 | 0.0 | 0.0 | 0.00 | 0.02 | 0.00 | 82 | 1006.7 |
| 20260505225602 | 31 | 248 | 1.0 | 2.0 | 0.00 | 0.02 | 0.00 | 82 | 1006.7 |
| 20260505224912 | 31 | 248 | 0.0 | 1.0 | 0.00 | 0.02 | 0.00 | 82 | 1006.7 |
| 20260505224210 | 31 | 248 | 0.0 | 0.0 | 0.00 | 0.02 | 0.00 | 82 | 1006.6 |
| 20260505223507 | 31 | 248 | 0.0 | 1.0 | 0.00 | 0.02 | 0.00 | 81 | 1006.6 |
| 20260505222804 | 31 | 248 | 0.0 | 2.0 | 0.00 | 0.02 | 0.00 | 81 | 1006.5 |